TimeEST,TemperatureF,Dew PointF,Humidity,Sea Level PressureIn,VisibilityMPH,Wind Direction,Wind SpeedMPH,Gust SpeedMPH,PrecipitationIn,Events,Conditions,WindDirDegrees,DateUTC
12:15 AM,24.8,19.4,80,29.97,10.0,NW,4.6,-,N/A,,Overcast,310,2013-03-02 05:15:00
12:51 AM,25.0,19.0,78,30.00,10.0,NW,8.1,-,N/A,,Overcast,320,2013-03-02 05:51:00
1:51 AM,25.0,19.0,78,30.00,10.0,NNW,4.6,-,N/A,,Overcast,330,2013-03-02 06:51:00
1:58 AM,24.8,19.4,80,29.97,10.0,Variable,3.5,-,N/A,,Overcast,0,2013-03-02 06:58:00
2:51 AM,25.0,18.0,75,29.99,10.0,NNW,5.8,-,N/A,,Overcast,340,2013-03-02 07:51:00
3:51 AM,25.0,18.0,75,29.98,10.0,NW,3.5,-,N/A,,Overcast,320,2013-03-02 08:51:00
4:51 AM,25.0,18.0,75,29.98,10.0,NNW,5.8,-,N/A,,Overcast,340,2013-03-02 09:51:00
5:51 AM,25.0,18.0,75,29.98,10.0,NNW,3.5,-,N/A,,Overcast,340,2013-03-02 10:51:00
6:34 AM,24.8,19.4,80,29.95,10.0,NNW,9.2,-,N/A,,Overcast,330,2013-03-02 11:34:00
6:51 AM,24.1,18.0,77,29.99,10.0,NNW,9.2,-,N/A,,Overcast,340,2013-03-02 11:51:00
7:51 AM,24.1,18.0,77,30.00,10.0,NNW,5.8,-,N/A,,Overcast,340,2013-03-02 12:51:00
8:51 AM,23.0,18.0,81,30.00,8.0,NNW,9.2,-,0.00,Snow,Light Snow,340,2013-03-02 13:51:00
9:51 AM,23.0,17.1,78,30.00,9.0,North,8.1,-,N/A,,Overcast,10,2013-03-02 14:51:00
10:51 AM,23.0,17.1,78,30.01,10.0,NNW,8.1,-,N/A,,Overcast,340,2013-03-02 15:51:00
11:51 AM,23.0,17.1,78,30.01,10.0,NW,8.1,-,N/A,,Overcast,320,2013-03-02 16:51:00
12:51 PM,23.0,17.1,78,30.00,10.0,NW,5.8,-,N/A,,Overcast,310,2013-03-02 17:51:00
1:51 PM,23.0,17.1,78,29.99,10.0,NW,6.9,-,N/A,,Overcast,310,2013-03-02 18:51:00
2:51 PM,24.1,18.0,77,29.97,10.0,WNW,9.2,-,N/A,,Overcast,300,2013-03-02 19:51:00
3:51 PM,24.1,19.0,81,29.97,9.0,West,5.8,-,N/A,,Overcast,280,2013-03-02 20:51:00
4:23 PM,24.8,19.4,80,29.94,8.0,WNW,5.8,-,N/A,,Overcast,290,2013-03-02 21:23:00
4:51 PM,25.0,19.9,81,29.98,6.0,WNW,5.8,-,0.00,Snow,Light Snow,290,2013-03-02 21:51:00
5:01 PM,24.8,19.4,80,29.94,5.0,WNW,6.9,-,0.00,Snow,Light Snow,290,2013-03-02 22:01:00
5:22 PM,24.8,19.4,80,29.94,4.0,WNW,5.8,-,0.00,Snow,Light Snow,300,2013-03-02 22:22:00
5:29 PM,24.8,19.4,80,29.94,4.0,West,6.9,-,0.00,Snow,Light Snow,280,2013-03-02 22:29:00
5:38 PM,24.8,19.4,80,29.94,4.0,West,5.8,-,N/A,Snow,Light Snow,280,2013-03-02 22:38:00
5:51 PM,25.0,19.9,81,29.98,3.0,WNW,6.9,-,0.00,Snow,Light Snow,290,2013-03-02 22:51:00
6:00 PM,24.8,19.4,80,29.94,2.5,West,6.9,-,0.00,Snow,Light Snow,280,2013-03-02 23:00:00
6:08 PM,24.8,19.4,80,29.94,4.0,West,5.8,-,0.00,Snow,Light Snow,280,2013-03-02 23:08:00
6:51 PM,25.0,21.0,85,29.98,6.0,WNW,6.9,-,0.00,Snow,Light Snow,300,2013-03-02 23:51:00
6:59 PM,24.8,21.2,86,29.95,5.0,WNW,6.9,-,0.00,Snow,Light Snow,300,2013-03-02 23:59:00
7:32 PM,26.6,21.2,80,29.95,7.0,WNW,8.1,-,0.00,,Overcast,300,2013-03-03 00:32:00
7:51 PM,26.1,19.9,78,29.98,7.0,WNW,8.1,-,0.00,,Overcast,300,2013-03-03 00:51:00
8:51 PM,26.1,19.9,78,29.99,9.0,NW,6.9,-,N/A,,Overcast,320,2013-03-03 01:51:00
9:12 PM,26.6,19.4,74,29.96,9.0,NW,10.4,19.6,N/A,,Overcast,320,2013-03-03 02:12:00
9:27 PM,26.6,19.4,74,29.96,7.0,NNW,10.4,-,N/A,,Overcast,330,2013-03-03 02:27:00
9:51 PM,25.0,19.9,81,29.99,9.0,NW,8.1,-,N/A,,Overcast,320,2013-03-03 02:51:00
10:51 PM,25.0,18.0,75,29.99,10.0,North,9.2,-,0.00,,Overcast,350,2013-03-03 03:51:00
11:51 PM,24.1,18.0,77,29.99,10.0,NW,11.5,-,N/A,,Overcast,320,2013-03-03 04:51:00